"Time","Temp","Dewpoint","Humidity","Pressure","Direction","Speed","Gust","Precip","PrecipRate"
"00:04:59","69.8","67.4","92","29.80","285","0.5","3.6","0.00","0.00"
"00:09:59","69.7","67.3","92","29.80","285","0.2","2.4","0.00","0.00"
"00:14:59","69.7","67.3","92","29.80","285","0","0","0.00","0.00"
"00:19:57","69.6","67.2","92","29.79","285","0","0","0.00","0.00"
"00:24:56","69.5","67.1","92","29.79","285","0","0","0.00","0.00"
"00:29:59","69.4","67","92","29.80","285","0","0","0.00","0.00"
"00:34:58","69.2","66.9","92.2","29.80","285","0","0","0.00","0.00"
"00:39:58","69.1","67","92.9","29.80","285","0","0","0.00","0.00"
"00:44:56","69","66.9","93","29.80","285","0","0","0.00","0.00"
"00:49:56","69","66.9","93","29.80","285","0","0","0.00","0.00"
"00:54:59","68.9","66.8","93","29.80","285","0","0","0.00","0.00"
"00:59:58","68.8","66.7","93","29.80","285","0","0","0.00","0.00"
"01:04:57","68.7","66.6","93","29.80","285","0","0","0.00","0.00"
"01:09:56","68.7","66.7","93.3","29.80","285","0.6","2.4","0.00","0.00"
"01:14:56","68.6","66.8","93.9","29.80","285","0","1.2","0.00","0.00"
"01:19:59","68.5","66.7","94","29.80","285","0","0","0.00","0.00"
"01:24:58","68.5","66.7","94","29.80","285","0","0","0.00","0.00"
"01:29:56","68.4","66.6","94","29.80","285","0","0","0.00","0.00"
"01:34:59","68.4","66.6","94","29.80","285","0","0","0.00","0.00"
"01:39:58","68.3","66.5","94","29.80","285","0","0","0.00","0.00"
"01:44:56","68.3","66.5","94","29.80","285","0","0","0.00","0.00"
"01:49:59","68.3","66.6","94.5","29.80","285","0","0","0.00","0.00"
"01:54:57","68.2","66.7","95","29.80","285","0","0","0.00","0.00"
"01:59:56","68.2","66.7","95","29.80","285","0","0","0.00","0.00"
"02:04:59","68.1","66.6","95","29.80","285","0","0","0.00","0.00"
"02:09:57","68.1","66.6","95","29.80","285","0","0","0.00","0.00"
"02:14:56","68.1","66.6","95","29.80","285","0","0","0.00","0.00"
"02:19:59","68.1","66.6","95","29.79","285","0","0","0.00","0.00"
"02:24:57","68","66.5","95","29.79","285","0","0","0.00","0.00"
"02:29:59","68","66.5","95","29.79","285","0","0","0.00","0.00"
"02:34:57","68","66.5","95","29.79","285","0","0","0.00","0.00"
"02:39:56","68.1","66.6","95","29.79","285","0","0","0.00","0.00"
"02:44:58","68","66.5","95","29.79","285","0","0","0.00","0.00"
"02:49:57","68.1","66.6","95","29.78","285","0","0","0.00","0.00"
"02:54:59","68.1","66.6","95","29.78","285","0","0","0.00","0.00"
"02:59:57","68.2","66.7","95","29.78","285","0","0","0.00","0.00"
"03:04:57","68.2","66.7","95","29.77","285","0","0","0.00","0.00"
"03:09:56","68.3","66.8","95","29.77","285","0","0","0.00","0.00"
"03:14:59","68.1","66.6","95","29.77","285","0","0","0.00","0.00"
"03:19:57","68","66.5","95","29.77","285","0","0","0.00","0.00"
"03:24:59","68","66.5","95","29.77","285","0","0","0.00","0.00"
"03:29:57","67.9","66.4","95","29.77","285","0","0","0.00","0.00"
"03:34:59","67.9","66.4","95","29.77","285","0","0","0.00","0.00"
"03:39:58","67.8","66.3","95","29.77","285","0","0","0.00","0.00"
"03:44:56","67.7","66.2","95","29.77","285","0","0","0.00","0.00"
"03:49:59","67.7","66.4","95.6","29.77","285","0","0","0.00","0.00"
"03:54:58","67.7","66.5","96","29.77","285","0","0","0.00","0.00"
"03:59:59","67.7","66.5","96","29.78","285","0.1","1.2","0.00","0.00"
"04:04:56","67.7","66.5","96","29.78","285","0.2","1.2","0.00","0.00"
"04:09:58","67.5","66.1","95.3","29.78","285","0.4","1.2","0.00","0.00"
"04:14:58","67.4","66","95.3","29.78","285","0","0","0.00","0.00"
"04:19:56","67.4","66.1","95.8","29.78","285","0","0","0.00","0.00"
"04:24:59","67.4","66","95.6","29.78","285","0","0","0.00","0.00"
"04:29:57","67.2","65.8","95.1","29.78","285","0","0","0.00","0.00"
"04:34:56","67.2","66","96","29.78","285","0","0","0.00","0.00"
"04:39:59","67.1","65.9","96","29.78","285","0","0","0.00","0.00"
"04:44:57","67.1","65.9","96","29.78","285","0","0","0.00","0.00"
"04:49:56","67","65.8","96","29.78","285","0","0","0.00","0.00"
"04:54:58","66.9","65.7","96","29.78","285","0","0","0.00","0.00"
"04:59:56","66.9","65.7","96","29.78","285","0","0","0.00","0.00"
"05:04:59","66.8","65.6","96","29.78","285","0","0","0.00","0.00"
"05:09:58","66.7","65.5","96","29.78","285","0","0","0.00","0.00"
"05:14:57","66.6","65.4","96","29.79","285","0","0","0.00","0.00"
"05:19:59","66.5","65.3","96","29.79","285","0","0","0.00","0.00"
"05:24:57","66.5","65.3","96","29.79","285","0","0","0.00","0.00"
"05:29:59","66.4","65.2","96","29.81","285","0","0","0.00","0.00"
"05:34:59","66.4","65.2","96","29.81","285","0","0","0.00","0.00"
"05:39:59","66.5","65.4","96.3","29.81","285","0","0","0.00","0.00"
"05:44:57","66.4","65.2","96","29.81","285","0","0","0.00","0.00"
"05:49:59","66.4","65.4","96.5","29.81","285","0","0","0.00","0.00"
"05:54:58","66.5","65.6","97","29.81","285","0.1","1.2","0.00","0.00"
"05:59:56","66.5","65.6","97","29.82","285","0","0","0.00","0.00"
"06:04:59","66.5","65.6","97","29.82","285","0","0","0.00","0.00"
"06:09:59","66.5","65.6","97","29.82","285","0","1.2","0.00","0.00"
"06:14:57","66.6","65.7","97","29.82","285","0","1.2","0.00","0.00"
"06:19:56","66.7","65.8","97","29.82","285","0.1","1.2","0.00","0.00"
"06:24:58","66.8","65.9","97","29.82","285","0","0","0.00","0.00"
"06:29:56","66.8","65.9","97","29.83","285","0","1.2","0.00","0.00"
"06:34:57","66.9","66","97","29.83","285","0.5","2.4","0.00","0.00"
"06:39:56","67","66.1","97","29.83","285","0","0","0.00","0.00"
"06:44:58","67","66.1","97","29.83","285","0","0","0.00","0.00"
"06:49:56","67.1","66.2","97","29.83","285","0","0","0.00","0.00"
"06:54:58","67.3","66.4","97","29.83","285","0","0","0.00","0.00"
"06:59:56","67.4","66.5","97","29.83","285","0.2","1.2","0.00","0.00"
"07:04:59","67.5","66.4","96.2","29.82","285","0","1.2","0.00","0.00"
"07:09:57","67.6","66.4","96","29.82","285","0.3","1.2","0.00","0.00"
"07:14:55","67.8","66.6","96","29.83","288","0.7","3.6","0.00","0.00"
"07:19:58","68","66.8","96","29.83","287","0.6","3.6","0.00","0.00"
"07:24:59","68.3","67.1","96","29.83","286","1.3","3.6","0.00","0.00"
"07:29:57","68.6","67.2","95.3","29.84","293","1.8","6","0.00","0.00"
"07:34:59","68.9","67.2","94.5","29.84","321","1.7","4.8","0.00","0.00"
"07:39:58","69.2","67.2","93.3","29.84","303","1.7","4.8","0.00","0.00"
"07:44:59","69.4","67.3","93","29.85","279","1.5","4.8","0.00","0.00"
"07:49:58","69.6","67.5","93","29.85","291","1.5","4.8","0.00","0.00"
"07:54:59","69.8","67.4","92.1","29.85","332","2.1","6","0.00","0.00"
"07:59:58","70","67.6","92","29.85","337","2","7.2","0.00","0.00"
"08:04:57","70.3","67.6","91.3","29.85","322","2.3","7.2","0.00","0.00"
"08:09:56","70.5","67.7","91","29.85","288","1.8","6.9","0.00","0.00"
"08:14:59","70.7","67.8","90.7","29.86","286","1.8","8.4","0.00","0.00"
"08:19:56","70.9","68.1","90.9","29.86","259","1.5","6","0.00","0.00"
"08:24:58","71","67.9","90","29.86","318","2.3","6","0.00","0.00"
"08:29:56","71.2","68","89.4","29.86","324","2","6","0.00","0.00"
"08:34:58","71.5","68","88.5","29.86","310","3","7.2","0.00","0.00"
"08:39:56","71.8","68.1","88.1","29.86","306","2.3","10.8","0.00","0.00"
"08:44:58","72.1","68.1","87.2","29.86","318","2.8","7.2","0.00","0.00"
"08:49:56","72.3","68","86.3","29.86","309","4.4","17.3","0.00","0.00"
"08:54:58","72.5","68.2","86.2","29.86","314","3.4","17.3","0.00","0.00"
"08:59:56","72.7","67.9","85","29.86","331","4","11.5","0.00","0.00"
"09:04:59","72.9","68","84.7","29.86","278","3.4","10.8","0.00","0.00"
"09:09:58","73","67.9","84","29.86","310","3.3","13.2","0.00","0.00"
"09:14:56","73","67.6","83.2","29.87","280","3.4","14.4","0.00","0.00"
"09:19:59","72.9","67.4","82.9","29.87","309","3.3","15","0.00","0.00"
"09:24:58","72.9","67.3","82.8","29.87","342","2.6","8.1","0.00","0.00"
"09:29:56","73","67.4","82.8","29.87","329","3.3","8.4","0.00","0.00"
"09:34:58","73.3","67.7","82.5","29.87","322","2.6","12","0.00","0.00"
"09:39:57","73.9","68","81.9","29.87","322","2.9","8.4","0.00","0.00"
"09:44:59","74.4","68","80.6","29.87","315","3.3","8.4","0.00","0.00"
"09:49:58","74.5","67.9","80","29.86","321","4.5","13.2","0.00","0.00"
"09:54:59","74.3","67.5","79.3","29.86","340","5.6","14.4","0.00","0.00"
"09:59:56","74.6","67.9","79.8","29.86","330","5.3","15","0.00","0.00"
"10:04:59","75.2","68.2","79","29.86","318","5.3","15","0.00","0.00"
"10:09:57","75.7","68.3","77.7","29.86","322","5","12.7","0.00","0.00"
"10:14:59","76.1","68.7","78.1","29.87","333","3.1","10.8","0.00","0.00"
"10:19:58","76.6","68.9","77.2","29.87","300","5.7","13.2","0.00","0.00"
"10:24:56","76.8","68.5","75.5","29.87","322","5.6","12","0.00","0.00"
"10:29:58","76.5","68.3","75.6","29.87","301","4.4","10.8","0.00","0.00"
"10:34:59","76.9","68.6","75.6","29.86","298","4.3","10.4","0.00","0.00"
"10:39:59","77.4","69.1","75.6","29.86","334","4","9.6","0.00","0.00"
"10:44:56","78","69.1","74.2","29.86","348","5.2","19.6","0.00","0.00"
"10:49:59","78.3","68.9","73","29.86","346","4.5","12","0.00","0.00"
"10:54:57","78.7","69.2","72.9","29.86","341","4.2","13.2","0.00","0.00"
"10:59:56","78.9","68.9","71.3","29.87","346","6.5","16.1","0.00","0.00"
"11:04:56","78.9","68.9","71.4","29.87","313","4.7","12","0.00","0.00"
"11:09:56","79.1","69","71.2","29.87","318","4.4","12","0.00","0.00"
"11:14:56","79.3","68.8","70.2","29.87","342","4.3","13.2","0.00","0.00"
"11:19:59","79.3","68.8","70.3","29.87","324","4","10.8","0.00","0.00"
"11:24:59","79.8","68.9","69.6","29.87","325","4.7","15","0.00","0.00"
"11:29:58","79.7","69","69.9","29.87","300","4.5","15","0.00","0.00"
"11:34:58","80.5","69.6","69.5","29.86","288","3.6","12","0.00","0.00"
"11:39:58","80.7","69.3","68.3","29.86","294","2.7","7.2","0.00","0.00"
"11:44:58","80.4","68.8","68","29.87","336","3.8","8.4","0.00","0.00"
"11:49:58","79.9","68.7","68.7","29.87","350","6.3","17.3","0.00","0.00"
"11:54:57","80.6","68.6","67.1","29.87","347","5.4","10.8","0.00","0.00"
"11:59:57","81.3","69.5","67.5","29.87","344","5.1","16.8","0.00","0.00"
"12:04:57","80.9","68.2","65.3","29.87","336","6.7","17.3","0.00","0.00"
"12:09:56","80.5","68.2","66.3","29.87","302","3.9","11.5","0.00","0.00"
"12:14:57","81.3","69.1","66.6","29.87","318","3.8","12","0.00","0.00"
"12:19:57","81.8","68.5","64.2","29.87","326","6","16.8","0.00","0.00"
"12:24:56","81.5","67.5","62.6","29.87","332","6.5","17.3","0.00","0.00"
"12:29:56","81.4","67.4","62.5","29.87","323","5.5","16.1","0.00","0.00"
"12:34:59","81.8","68.6","64.5","29.87","343","3","7.2","0.00","0.00"
"12:39:56","82.6","68.9","63.3","29.87","326","4.3","10.8","0.00","0.00"
"12:44:59","82.2","68.6","63.4","29.87","323","4.6","12","0.00","0.00"
"12:49:59","82.5","68.9","63.5","29.86","277","4.7","15","0.00","0.00"
"12:54:58","81.7","68","63.2","29.86","323","5.1","15","0.00","0.00"
"12:59:58","82.3","68.2","62.5","29.87","318","3.4","9.6","0.00","0.00"
"13:04:58","82.8","68.6","62.4","29.87","333","4.6","10.8","0.00","0.00"
"13:09:58","82.9","69","63","29.87","336","5.8","15","0.00","0.00"
"13:14:58","82.9","68.5","62","29.87","347","4.5","9.6","0.00","0.00"
"13:19:58","83.2","69.2","62.9","29.86","282","3.3","13.2","0.00","0.00"
"13:24:58","83.7","70.1","63.9","29.86","310","3.2","7.2","0.00","0.00"
"13:29:58","84.2","69.4","61.2","29.86","350","5.5","13.2","0.00","0.00"
"13:34:58","84.3","68.7","59.7","29.86","339","2.8","10.4","0.00","0.00"
"13:39:58","84.5","68.6","59.1","29.86","286","2.8","7.2","0.00","0.00"
"13:44:58","84.8","70.2","61.7","29.86","326","4.7","15","0.00","0.00"
"13:49:58","84.7","69.6","60.8","29.86","304","3.8","13.2","0.00","0.00"
"13:54:58","84.7","69.2","59.9","29.86","312","3.6","8.4","0.00","0.00"
"13:59:57","84.5","69.4","60.8","29.86","296","2.7","10.8","0.00","0.00"
"14:04:58","84.5","68.5","58.8","29.86","331","4.2","13.2","0.00","0.00"
"14:09:57","84.4","67.2","56.5","29.86","320","4.8","15","0.00","0.00"
"14:14:57","84.1","67.5","57.5","29.86","289","3.7","10.4","0.00","0.00"
"14:19:57","84.5","67.9","57.5","29.86","310","3.8","10.8","0.00","0.00"
"14:24:57","84.9","68.7","58.5","29.86","315","2.7","13.2","0.00","0.00"
"14:29:56","85.2","69","58.4","29.86","251","3.7","15","0.00","0.00"
"14:34:56","85.1","67.2","55.1","29.86","328","4.1","12","0.00","0.00"
"14:39:57","84.9","67.7","56.4","29.86","233","3.1","12","0.00","0.00"
"14:44:56","85.2","68.1","56.8","29.86","302","4.4","12","0.00","0.00"
"14:49:56","85.4","68.3","56.8","29.86","358","3.3","12","0.00","0.00"
"14:54:59","85.6","67.7","55.2","29.86","328","3.3","6.9","0.00","0.00"
"14:59:59","85.4","68.2","56.4","29.86","315","4","8.4","0.00","0.00"
"15:04:59","85.5","68","56.1","29.86","216","3","10.8","0.00","0.00"
"15:09:59","85.8","68.5","56.3","29.86","258","2.3","6","0.00","0.00"
"15:14:55","86.2","67","53","29.86","253","4.5","12","0.00","0.00"
"15:19:56","86.1","67.6","54.3","29.86","242","3.1","6.9","0.00","0.00"
"15:24:59","86.2","67.1","53.2","29.86","218","4.4","9.6","0.00","0.00"
"15:29:59","86.2","67.4","53.7","29.86","211","3.2","9.6","0.00","0.00"
"15:34:59","86.3","67","52.8","29.85","326","3","7.2","0.00","0.00"
"15:39:56","86","67.1","53.4","29.85","248","3","13.2","0.00","0.00"
"15:44:59","86","66.9","53","29.85","344","3.3","8.4","0.00","0.00"
"15:49:59","86.4","67.3","53.1","29.85","337","3.6","12","0.00","0.00"
"15:54:59","86.2","65.8","50.7","29.85","347","4.3","11.5","0.00","0.00"
"15:59:59","85.7","67","53.7","29.85","334","3","10.8","0.00","0.00"
"16:04:59","86.1","66.8","52.7","29.85","338","4.6","12","0.00","0.00"
"16:09:59","86.4","65.8","50.5","29.85","349","4.3","12","0.00","0.00"
"16:14:59","86.6","66.1","50.6","29.85","319","3.2","8.4","0.00","0.00"
"16:19:59","87","65.1","48.3","29.84","300","3.8","9.6","0.00","0.00"
"16:24:59","86.5","65.7","49.9","29.84","324","3.6","10.8","0.00","0.00"
"16:29:59","86.1","66.2","51.5","29.84","250","2","6","0.00","0.00"
"16:34:58","86.4","66.1","50.9","29.84","289","3.9","15","0.00","0.00"
"16:39:59","86.2","65.2","49.5","29.84","251","2.8","6.9","0.00","0.00"
"16:44:59","86.1","66","51.2","29.84","298","3.4","7.2","0.00","0.00"
"16:49:59","86.4","65.7","50.3","29.84","315","3.2","7.2","0.00","0.00"
"16:54:58","86.7","64.9","48.4","29.84","307","3.5","8.4","0.00","0.00"
"16:59:58","86.7","65.4","49.3","29.84","336","2.7","8.1","0.00","0.00"
"17:04:58","87","65.8","49.6","29.84","224","3.6","7.2","0.00","0.00"
"17:09:58","87.1","65.1","48.1","29.84","287","2.9","8.4","0.00","0.00"
"17:14:58","87.1","64.2","46.6","29.84","284","2.8","8.1","0.00","0.00"
"17:19:58","87.2","63.8","45.9","29.84","310","4.3","10.8","0.00","0.00"
"17:24:58","86.9","63.2","45.4","29.84","288","3.3","8.4","0.00","0.00"
"17:29:58","86.9","64.1","46.9","29.85","303","3.5","8.4","0.00","0.00"
"17:34:58","87.1","64.3","47","29.85","341","1.9","6.9","0.00","0.00"
"17:39:59","87.4","64.4","46.6","29.85","311","2","6","0.00","0.00"
"17:44:58","87.3","64.4","46.7","29.85","324","2","12","0.00","0.00"
"17:49:57","87","64.2","46.8","29.85","285","3.1","7.2","0.00","0.00"
"17:54:57","86.6","63.8","46.6","29.85","319","2.9","6","0.00","0.00"
"17:59:57","86.4","64.3","47.8","29.85","306","2.5","7.2","0.00","0.00"
"18:04:57","86.3","63.9","47.3","29.84","345","4.1","8.4","0.00","0.00"
"18:09:57","85.9","63.8","47.8","29.84","309","2.8","6.9","0.00","0.00"
"18:14:57","85.6","63.8","48.3","29.84","282","2.3","4.8","0.00","0.00"
"18:19:58","85.2","64.4","50","29.84","336","2.6","7.2","0.00","0.00"
"18:24:57","85.1","64.2","49.7","29.84","335","3.2","8.4","0.00","0.00"
"18:29:57","85.2","64.3","49.7","29.84","325","3.5","8.1","0.00","0.00"
"18:34:57","85.1","63.9","49.2","29.84","317","3.7","8.4","0.00","0.00"
"18:39:57","85","64.5","50.5","29.84","324","3.1","10.8","0.00","0.00"
"18:44:57","85","65.5","52.1","29.85","342","2","8.4","0.00","0.00"
"18:49:57","84.8","65.3","52.1","29.85","321","3.7","8.4","0.00","0.00"
"18:54:57","84.6","65.6","53.2","29.85","334","4","8.4","0.00","0.00"
"18:59:57","84.3","64.9","52.2","29.85","341","3.9","8.4","0.00","0.00"
"19:04:57","84.1","64.6","52","29.85","334","2.7","6.9","0.00","0.00"
"19:09:56","83.9","64.5","52.2","29.85","328","2.8","6","0.00","0.00"
"19:14:57","83.8","64.8","52.9","29.85","348","1.8","4.6","0.00","0.00"
"19:19:57","83.8","64.9","53.2","29.85","332","1.8","4.8","0.00","0.00"
"19:24:57","83.7","65.4","54.2","29.85","330","1.4","3.6","0.00","0.00"
"19:29:58","83.5","65.6","55","29.85","330","1.9","3.6","0.00","0.00"
"19:34:57","83.2","65.5","55.2","29.85","329","2.6","4.8","0.00","0.00"
"19:39:58","83","65.7","56.1","29.85","345","1.3","4.6","0.00","0.00"
"19:44:57","82.7","65.5","56.2","29.86","343","2.2","4.8","0.00","0.00"
"19:49:58","82.4","65.3","56.4","29.86","337","1","3.5","0.00","0.00"
"19:54:58","82.2","65.9","57.9","29.86","337","0.6","2.4","0.00","0.00"
"19:59:58","81.9","66","58.5","29.86","337","0.3","2.4","0.00","0.00"
"20:04:58","81.5","66","59.3","29.86","337","0.2","1.2","0.00","0.00"
"20:09:58","81.2","66","60.1","29.86","337","0.5","2.4","0.00","0.00"
"20:14:59","80.9","66.5","61.6","29.87","337","0.2","1.2","0.00","0.00"
"20:19:56","80.4","66.2","62","29.87","337","0","1.2","0.00","0.00"
"20:24:56","80","66","62.4","29.87","337","0","1.2","0.00","0.00"
"20:29:56","79.7","66.2","63.6","29.87","337","0","0","0.00","0.00"
"20:34:57","79.1","66.4","65","29.87","334","0","1.2","0.00","0.00"
"20:39:57","78.5","66.3","66.3","29.87","334","0.6","1.2","0.00","0.00"
"20:44:56","78","66.4","67.6","29.87","304","0","0","0.00","0.00"
"20:49:56","77.6","66.4","68.6","29.87","303","0","0","0.00","0.00"
"20:54:59","77","66.3","69.6","29.87","304","0","0","0.00","0.00"
"20:59:58","76.3","66.2","71","29.88","304","0","0","0.00","0.00"
"21:04:57","75.6","66.3","72.9","29.88","304","0","0","0.00","0.00"
"21:09:56","75.2","66.3","74","29.88","304","0","0","0.00","0.00"
"21:14:56","74.9","66.4","75","29.88","303","0","1.2","0.00","0.00"
"21:19:56","74.7","66.3","75.5","29.88","303","0.5","2.4","0.00","0.00"
"21:24:58","74.4","66.3","76","29.88","304","0","0","0.00","0.00"
"21:29:58","74.1","66.2","76.6","29.88","303","0","0","0.00","0.00"
"21:34:57","73.8","66.1","77","29.88","304","0","0","0.00","0.00"
"21:39:57","73.4","65.9","77.4","29.88","304","0","0","0.00","0.00"
"21:44:56","73.1","65.8","78","29.89","304","0","0","0.00","0.00"
"21:49:56","72.9","65.6","78.2","29.89","304","0","0","0.00","0.00"
"21:54:59","72.7","65.5","78.3","29.89","304","0","0","0.00","0.00"
"21:59:58","72.5","65.4","78.7","29.89","304","0","0","0.00","0.00"
"22:04:58","72.2","65.5","79.6","29.89","304","0","0","0.00","0.00"
"22:09:57","71.9","65.4","80","29.89","304","0","0","0.00","0.00"
"22:14:59","71.5","65.4","80.9","29.90","304","0","0","0.00","0.00"
"22:19:58","71.1","65","81","29.90","303","0","0","0.00","0.00"
"22:24:58","70.8","64.8","81.3","29.90","304","0","0","0.00","0.00"
"22:29:57","70.5","64.7","82","29.90","304","0","0","0.00","0.00"
"22:34:56","70.2","64.8","82.9","29.90","304","0","0","0.00","0.00"
"22:39:56","70.1","65","83.9","29.90","304","0","1.2","0.00","0.00"
"22:44:59","70.2","65.1","84","29.91","304","0.3","1.2","0.00","0.00"
"22:49:59","70.3","65.2","84","29.91","304","1","2.4","0.00","0.00"
"22:54:58","70.3","65.2","84","29.91","304","0.6","2.4","0.00","0.00"
"22:59:57","70.3","65.2","84","29.91","304","0","0","0.00","0.00"
"23:04:57","70.2","65.1","84","29.91","304","0","0","0.00","0.00"
"23:09:56","70","64.9","84","29.91","304","0.3","1.2","0.00","0.00"
"23:14:55","69.9","64.8","84","29.91","304","0.5","1.2","0.00","0.00"
"23:19:59","69.9","64.8","84","29.91","304","0.3","2.4","0.00","0.00"
"23:24:58","69.8","64.6","83.6","29.91","304","0","0","0.00","0.00"
"23:29:58","69.7","64.3","83","29.91","304","0","0","0.00","0.00"
"23:34:57","69.6","64.4","83.8","29.91","304","0","0","0.00","0.00"
"23:39:57","69.4","64.3","83.9","29.91","304","0","0","0.00","0.00"
"23:44:56","69.2","63.9","83.3","29.91","304","0","0","0.00","0.00"
"23:49:59","69.1","64.1","84","29.91","304","0","0","0.00","0.00"
